Preview of NWS' New Version of Forecast
This preview is not operational and should not be used for support decisions.

Regional Weather Roundup (RWR)

Issued by National Weather Service (NWS)

                            
000
ASUS42 KTBW 211118
RWRFL 
FLORIDA REGIONAL WEATHER ROUNDUP
NATIONAL WEATHER SERVICE TAMPA BAY RUSKIN FL
700 AM EDT WED AUG 21 2019

NOTE: "FAIR" INDICATES FEW OR NO CLOUDS BELOW 12,000 FEET WITH NO
SIGNIFICANT WEATHER AND/OR OBSTRUCTIONS TO VISIBILITY.

FLZ001>010-012>015-112-114-115-211200-
PANHANDLE FLORIDA
  
CITY           SKY/WX    TMP DP  RH WIND       PRES   REMARKS
PENSACOLA      FAIR      76  76 100 NE3       30.05R                  
PENSACOLA NAS  MOCLDY    73  73 100 CALM      30.04R FOG              
MILTON NAS     FAIR      72  72 100 CALM      30.06R                  
CRESTVIEW      FAIR      74  72  93 CALM      30.08R                  
DUKE FIELD     FAIR      75  75 100 NE3       30.06R                  
VALPARAISO     FAIR      76  76  97 CALM      30.05R                  
MARY ESTHER    PTCLDY    74  72  93 CALM      30.04R                  
TRI COUNTY     FAIR      74  72  93 N3        30.07S                  
PANAMA CITY    FAIR      75  73  93 CALM      30.05R                  
TYNDALL AFB    FAIR      77  75  93 CALM      30.05R                  
APALACHICOLA   FAIR      77  74  90 E5        30.04F                  

STATION/POSITION SKY/WX   TEMP    WIND        PRES    WAVE   SWELL
                          AIR SEA DIR/SP/G            HT/PER HT/PER
                          (F)     (DEG/KT/KT) (MB)    (FT/S) (FT/S)
30.1N   87.6W              82 84  110/  6/  8 1017.3R   2/ 6   2/ 6
29.2N   88.2W              83 85  110/  4/  6 1017.1R   2/ 7   2/ 7
28.8N   86.0W                 84  100/  6/  8 1017.1R   2/ 6   2/ 6
PANAMA CITY BEAC           79 85   80/  4/  6 1018.0R
TOWER C                    82     110/  5/  6 1018.0R
28.5N   84.5W              83     110/  6/  8 1018.3R   1/ 5   2/ 5

$$
FLZ011-016>038-118-127-128-134-139-239-211200-
NORTH FLORIDA
  
CITY           SKY/WX    TMP DP  RH WIND       PRES   REMARKS
MARIANNA       FAIR      74  74 100 NE5       30.06S                  
TALLAHASSEE    MOCLDY    76  75  97 E5        30.06S                  
PERRY          FAIR      74  73  97 CALM      30.09R                  
LIVE OAK       CLEAR     72  73 100 CALM      30.09R                  
CROSS CITY     FAIR      74  74  98 CALM      30.08R                  
LAKE CITY      FAIR      72  70  94 CALM      30.10R                  
GAINESVILLE    FAIR      71  70  96 CALM      30.11R                  
WILLISTON      FAIR      72  72  99 CALM      30.08S                  
MAYPORT NAS    FAIR      76  74  93 CALM      30.09R                  
JACKSONVILLE   MOCLDY    73  72  96 E5        30.09R                  
JAX NAS        FAIR      78  73  84 NW3       30.10R                  
JAX CECIL      CLEAR     72  70  94 CALM      30.09S                  
FERNANDINA BEA FAIR      74  74  99 MISG      30.10R                  
ST AUGUSTINE   FAIR      74  73  97 CALM      30.10S                  
PALM COAST     CLEAR     73  72  94 CALM      30.09S                  

STATION/POSITION SKY/WX   TEMP    WIND        PRES    WAVE   SWELL
                          AIR SEA DIR/SP/G            HT/PER HT/PER
                          (F)     (DEG/KT/KT) (MB)    (FT/S) (FT/S)
SHELL POINT      NOT AVBL
KEATON BEACH               75      60/  5/  7 1018.4R
CEDAR KEY                  80     160/ 10/ 11 1018.5R
FERNANDINA                 82 83              1019.6S
30.7N   81.3W                 82                N/A     2/11
MAYPORT                    78 83  150/  2/  2 1019.6R
31.4N   80.9W              81 82  250/  6/  8 1019.3R   1/ 7   2/ 7
ST AUGUSTINE               79 81  140/  2/  3 1019.1R

$$
FLZ040-043>046-052-053-057-058-063-144-211200-
INTERIOR CENTRAL FLORIDA
  
CITY           SKY/WX    TMP DP  RH WIND       PRES   REMARKS
OCALA          FAIR      74  74 100 CALM      30.09R                  
LEESBURG       FAIR      76  74  93 CALM      30.09S                  
SANFORD        FAIR      76  75  97 E6        30.09R                  
ORLANDO EXEC   FAIR      77  75  93 E5        30.09R                  
ORLANDO INTL   NOT AVBL                                               
KISSIMMEE      FAIR      77  76  96 CALM      30.10R                  
WINTER HAVEN   FAIR      77  74  90 E5        30.09S                  
LAKELAND       CLEAR     75  72  88 E5        30.09R                  
SEBRING        FAIR      74  73  98 N3        30.08S                  
OKEECHOBEE     FAIR      73  72  94 CALM      30.07S                  

$$
FLZ041-047-054-059-064-141-147-211200-
EAST CENTRAL FLORIDA
  
CITY           SKY/WX    TMP DP  RH WIND       PRES   REMARKS
ORMOND BEACH   CLEAR    N/A N/A N/A CALM      30.09                   
DAYTONA BEACH  FAIR      77  77 100 CALM      30.09R                  
DELAND         FOG       73  72  94 CALM      30.09S VSB 1            
NEW SMYRNA BEA PTCLDY    75  75 100 CALM      30.10                   
TITUSVILLE     CLEAR    N/A N/A N/A CALM      30.09                   
CAPE CANAVERAL FAIR      74  74 100 MISG      30.07S                  
PATRICK AFB    FAIR      80  79  98 CALM      30.08R                  
MELBOURNE      FAIR      77  74  90 NW3       30.08R                  
VERO BEACH     FAIR      74  73  97 CALM      30.07S                  
FT PIERCE      FAIR      74  71  91 CALM      30.07R                  
STUART         PTCLDY    77  73  88 CALM      30.07F                  

STATION/POSITION SKY/WX   TEMP    WIND        PRES    WAVE   SWELL
                          AIR SEA DIR/SP/G            HT/PER HT/PER
                          (F)     (DEG/KT/KT) (MB)    (FT/S) (FT/S)
28.5N   80.2W              83 84  100/  6/  8 1018.6R   2/ 7   2/ 7
28.9N   78.5W              83 86  120/  8/ 10 1019.8R   3/ 7   2/ 7
TRIDENT PIER               78 81  360/  1/  1 1019.9F
28.4N   80.5W                 82                N/A     1/ 7
27.5N   80.2W                 83                N/A     2/ 6

$$
FLZ050-056-061-142-242-148-248-149-249-151-251-155-255-
160-260-211200-
WEST CENTRAL FLORIDA
  
CITY           SKY/WX    TMP DP  RH WIND       PRES   REMARKS
CRYSTAL RIVER  FAIR      75  73  94 CALM      30.09R                  
INVERNESS      FAIR      73  73 100 CALM      30.09R                  
BROOKSVILLE    FAIR      74  73  97 E5        30.09R                  
CLEARWATER AIR FAIR      79  73  83 SE3       30.06S                  
ST PETE CLEARW FAIR      78  74  87 E5        30.07R                  
TAMPA INTL     MOCLDY    79  73  83 CALM      30.08R                  
PLANT CITY     FAIR      75  75 100 CALM      30.11R                  
MACDILL AFB    FAIR      77  74  91 E6        30.07R                  
PETER O KNIGHT FAIR     N/A N/A N/A E5        30.08S                  
ST PETERSBURG  FAIR      80  74  81 SE9       30.05S                  
SARASOTA       FAIR      76  74  93 E6        30.05R                  
VENICE         FAIR      75  75 100 NE5       30.07R                  

STATION/POSITION SKY/WX   TEMP    WIND        PRES    WAVE   SWELL
                          AIR SEA DIR/SP/G            HT/PER HT/PER
                          (F)     (DEG/KT/KT) (MB)    (FT/S) (FT/S)
27.3N   84.2W                 85                N/A     3/ 5
CLEARWATER BEACH           80 86   80/  3/  5 1018.3S
MIDDLE TAMPA BAY           78     120/ 10/ 11 1018.5R
VENICE                     76 85   70/  5/  5 1017.9R

$$
FLZ066-069-070-075>078-162-262-165-265-211200-
SOUTHWEST FLORIDA AND KEYS
  
CITY           SKY/WX    TMP DP  RH WIND       PRES   REMARKS
PUNTA GORDA    FAIR      74  74 100 NE5       30.08R                  
FT MYERS       FAIR      75  73  93 CALM      30.05R                  
SOUTHWEST INTL FAIR      76  74  93 E5        30.05S                  
NAPLES         FAIR      78  75  90 E3        30.05R                  
IMMOKALEE      FAIR      75  73  94 CALM      30.04R                  
MARATHON       FAIR      83  75  77 VRB3      30.03S                  
KEY WEST NAS   FAIR      83  75  77 SE7       30.02S                  
KEY WEST INTL  FAIR      83  75  77 E7        30.03R                  

STATION/POSITION SKY/WX   TEMP    WIND        PRES    WAVE   SWELL
                          AIR SEA DIR/SP/G            HT/PER HT/PER
                          (F)     (DEG/KT/KT) (MB)    (FT/S) (FT/S)
NAPLES                     78 85              1017.2R
26.0N   85.6W              84 85  130/  6/  8 1016.6R   2/ 8   2/ 8
DRY TORTUGAS               83     130/  8/  9 1016.4F
SAND KEY                   83     130/ 10/ 12 1015.5R
SOMBRERO KEY               83     120/  6/  8 1017.0F
LONG KEY                   84                 1015.9F

$$
FLZ067-068-071>074-168-172>174-211200-
SOUTHEAST FLORIDA 
  
CITY           SKY/WX    TMP DP  RH WIND       PRES   REMARKS
W PALM BEACH   FAIR      78  71  79 CALM      30.07R                  
BOCA RATON     PTCLDY    79  72  78 CALM      30.05                   
FT LAUDER-EXEC FAIR      76  73  91 CALM      30.05R                  
FT LAUDERDALE  FAIR      79  71  76 CALM      30.04R                  
POMPANO BEACH  FAIR      79  71  76 CALM      30.06R                  
OPA LOCKA      FAIR      79  73  82 CALM      30.06R                  
MIAMI          FAIR      81  71  71 CALM      30.05R                  
WEST KENDALL   FAIR      77  73  87 CALM      30.04S                  
HOMESTEAD      FAIR      77  74  90 CALM      30.03S                  

STATION/POSITION SKY/WX   TEMP    WIND        PRES    WAVE   SWELL
                          AIR SEA DIR/SP/G            HT/PER HT/PER
                          (F)     (DEG/KT/KT) (MB)    (FT/S) (FT/S)
PORT EVERGLADES            83     130/  4/  6 1017.2
VIRGINIA KEY               83 88   90/  5/  7 1017.0R
LAKE WORTH                        140/  7/  9   N/A
FOWEY ROCKS                83 86  110/  7/  8 1017.7R
SETTLEMENT POINT           81     140/  4/  4 1018.6R

$$